Temperature
8 9 9 9 9 9 8 8 7 8 9 9 9 9 9 8 8 7 7 6 5 5 4 4 4 4 3 3 3 3 3 3 2 2 2 2 2 2 2 2 2 2 2 1
7 9 9 8 9 9 9 9 8 8 8 9 10 10 9 9 8 7 7 6 6 5 4 4 4 4 3 3 3 3 3 2 2 2 2 2 2 2 2 1 1 1 1 1
7 9 9 7 9 9 9 9 9 8 9 9 9 9 9 9 8 8 7 6 6 5 5 4 4 4 4 3 3 3 2 2 2 2 2 1 1 1 1 1 1 1 0 0
6 7 7 10 10 10 10 10 9 9 9 9 9 9 9 9 8 8 7 7 6 5 5 4 4 4 3 3 3 2 2 2 1 1 1 1 1 1 0 0 0 -0 -0 -1
6 7 8 10 9 9 9 9 10 9 9 10 9 8 8 8 8 8 7 7 6 5 5 5 4 4 3 3 2 2 2 1 1 1 1 0 0 0 -0 -1 -1 -1 -1 -2
6 7 8 10 9 9 9 8 9 10 9 9 8 6 7 8 8 7 7 6 6 5 5 4 4 3 3 3 2 2 1 1 1 1 0 -0 -0 -1 -1 -1 -2 -2 -2 -2
5 6 8 9 8 8 8 9 9 9 9 8 7 7 8 8 7 7 6 6 5 5 5 4 4 3 3 2 2 2 1 1 1 0 -0 -1 -1 -1 -2 -2 -2 -2 -3 -3
6 6 7 8 7 7 8 9 9 9 8 8 8 7 7 7 6 6 6 5 5 5 4 4 3 3 3 2 2 1 1 0 0 -0 -1 -1 -1 -2 -2 -3 -3 -3 -4 -4
7 8 9 9 9 9 9 9 8 8 8 7 7 7 6 6 6 6 5 5 5 4 4 3 3 3 2 2 1 1 0 0 -0 -1 -1 -2 -2 -2 -3 -3 -4 -4 -5 -5
6 7 9 10 10 10 9 8 8 7 7 7 6 6 6 5 5 5 5 5 4 4 3 3 3 2 2 1 1 0 0 -0 -1 -1 -2 -2 -3 -3 -4 -4 -5 -5 -5 -5
5 7 9 9 9 9 8 8 7 7 7 6 6 6 5 5 5 5 4 4 4 4 3 3 2 2 1 1 0 -0 -0 -1 -1 -2 -2 -3 -3 -4 -4 -5 -5 -6 -6 -6
6 8 8 8 8 8 7 7 7 6 6 6 5 5 5 5 5 4 4 4 4 3 3 2 2 1 1 0 -0 -1 -1 -1 -2 -2 -3 -3 -4 -4 -4 -5 -5 -6 -6 -7
8 8 8 8 7 7 7 6 6 6 5 5 5 5 5 5 4 4 4 4 3 3 2 2 1 1 0 -0 -1 -1 -1 -2 -2 -3 -3 -4 -4 -5 -5 -4 -5 -5 -6 -7
7 7 6 6 6 6 6 6 5 5 5 5 5 4 4 4 4 4 4 3 3 2 2 1 1 0 -0 -1 -1 -2 -2 -2 -3 -3 -4 -4 -5 -5 -6 -6 -6 -6 -6 -7
6 6 6 5 5 5 5 5 5 5 4 4 4 4 4 4 4 4 3 3 2 2 2 1 0 -0 -1 -1 -2 -2 -2 -3 -3 -4 -4 -5 -5 -6 -6 -7 -7 -7 -7 -7
5 5 5 5 5 4 4 4 4 4 4 4 4 4 4 3 3 3 3 2 2 2 1 0 -0 -0 -1 -2 -2 -2 -3 -3 -4 -4 -5 -5 -6 -6 -7 -7 -7 -8 -8 -8
4 4 4 4 4 4 4 4 4 4 4 4 4 3 3 3 3 3 2 2 2 1 1 0 -0 -1 -1 -2 -2 -3 -3 -4 -4 -5 -5 -6 -6 -7 -7 -8 -8 -8 -8 -9
4 4 4 4 4 3 3 3 3 3 3 3 3 3 3 2 2 2 2 2 1 1 0 -0 -1 -1 -2 -2 -3 -3 -4 -4 -5 -5 -6 -6 -7 -7 -8 -8 -8 -9 -9 -9
4 4 4 4 4 3 3 3 3 3 3 3 3 3 2 2 2 2 1 1 1 0 0 -1 -1 -2 -2 -3 -3 -4 -4 -5 -5 -6 -6 -7 -7 -8 -8 -8 -9 -9 -9 -9
4 4 4 4 4 3 3 3 3 3 3 3 2 2 2 2 1 1 1 1 0 0 -0 -1 -1 -2 -2 -3 -3 -4 -4 -5 -5 -6 -6 -7 -7 -8 -8 -9 -9 -9 -9 -9
4 4 4 4 4 3 3 3 3 3 3 2 2 2 2 1 1 1 0 0 0 -1 -1 -2 -2 -2 -3 -3 -4 -4 -5 -5 -6 -6 -7 -7 -8 -8 -8 -9 -9 -9 -9 -10
4 4 4 4 3 3 3 3 3 2 2 2 2 1 1 1 1 0 0 -0 -0 -1 -1 -2 -2 -3 -3 -4 -4 -5 -5 -6 -6 -7 -7 -7 -8 -8 -9 -9 -9 -9 -9 -10
4 4 4 3 3 3 3 3 2 2 2 2 2 1 1 1 1 0 0 -0 -1 -1 -2 -2 -3 -3 -4 -4 -5 -5 -5 -6 -6 -7 -7 -8 -8 -8 -9 -9 -9 -9 -9 -10
4 3 3 3 3 2 2 3 2 2 2 1 1 1 1 0 0 -0 -0 -1 -1 -2 -2 -3 -3 -4 -4 -4 -5 -5 -6 -6 -7 -7 -7 -8 -8 -8 -9 -9 -9 -9 -10 -10
3 3 3 2 2 2 2 2 2 1 1 1 1 0 0 -0 -0 -0 -1 -1 -2 -2 -3 -3 -4 -4 -4 -5 -5 -5 -6 -6 -7 -7 -7 -8 -8 -9 -9 -9 -9 -9 -10 -10
2 2 2 2 2 1 1 1 1 1 1 0 0 -0 -0 -1 -1 -1 -1 -2 -2 -3 -3 -3 -4 -4 -5 -5 -5 -6 -6 -7 -7 -7 -8 -8 -8 -9 -9 -9 -9 -10 -10 -10
2 2 2 1 1 1 1 1 1 0 0 -0 -0 -0 -1 -1 -1 -2 -2 -2 -3 -3 -3 -4 -4 -4 -5 -5 -6 -6 -6 -7 -7 -7 -8 -8 -8 -9 -9 -9 -9 -10 -10 -10
Wind_Speed
9 10 8 9 9 8 10 9 7 6 7 7 4 4 5 5 5 5 5 5 5 4 3 2 2 2 2 2 3 3 4 4 5 5 5 5 6 6 6 6 7 6 6 6
7 8 9 11 11 11 10 11 13 12 12 7 4 3 3 4 5 5 4 4 5 5 4 3 3 2 2 2 2 2 3 3 3 4 5 5 5 6 6 6 6 6 6 6
5 6 7 8 9 11 8 8 8 11 8 3 3 4 5 5 5 5 5 5 5 5 5 5 4 4 3 1 1 1 2 2 3 4 4 5 6 6 6 6 6 6 6 6
5 6 6 5 1 2 6 8 9 8 5 4 4 3 4 5 5 5 5 5 5 5 5 5 4 4 3 2 1 0 1 2 3 3 4 4 5 5 6 5 5 5 6 6
3 5 8 4 3 2 3 5 7 8 6 4 1 1 4 4 5 5 4 4 5 5 5 5 5 4 4 2 1 0 1 1 2 3 3 4 4 4 4 5 5 5 5 6
4 4 5 3 3 2 1 5 2 3 2 2 3 2 4 2 3 3 3 4 5 5 4 4 4 4 3 2 1 1 1 1 2 2 3 4 4 4 4 4 5 6 6 6
7 6 7 2 5 4 2 3 2 1 1 2 5 5 2 2 2 3 4 5 6 5 4 4 4 4 3 2 2 2 1 1 2 2 3 3 3 4 4 5 5 6 6 6
5 6 8 5 6 5 4 1 1 1 2 3 3 2 2 2 3 4 4 5 6 5 4 4 4 4 3 3 2 1 1 1 2 2 3 3 3 4 4 5 5 6 6 6
7 8 3 7 6 5 2 2 3 3 3 3 4 4 4 4 5 5 6 5 5 5 5 4 4 5 4 3 1 1 1 2 2 3 3 3 3 4 4 4 4 5 6 6
7 9 7 7 8 6 5 4 3 3 4 4 6 6 5 4 5 5 5 5 5 5 5 4 4 4 4 3 2 1 2 2 2 2 3 3 3 3 3 4 5 6 6 7
8 9 9 8 5 3 3 2 3 4 5 6 6 6 6 5 5 5 5 5 5 5 5 5 5 4 4 3 2 1 2 2 2 2 3 3 4 3 4 4 5 7 6 6
10 7 5 4 1 1 3 4 5 5 5 5 5 6 6 5 5 5 5 5 5 5 5 5 5 5 4 3 3 2 2 2 2 2 3 3 4 5 7 8 11 12 12 12
11 7 6 6 5 4 5 6 5 6 6 6 5 5 5 4 4 4 5 5 6 6 5 5 5 4 4 3 3 2 2 2 2 2 3 4 4 5 7 9 11 12 13 14
7 6 8 7 6 5 5 5 4 5 6 5 5 4 4 4 4 5 6 6 5 5 5 5 5 5 4 4 3 3 2 2 2 2 3 4 4 5 5 7 8 7 9 14
9 8 8 6 5 5 5 4 5 5 5 5 4 4 5 5 5 5 4 4 5 5 5 5 5 4 4 4 3 3 2 2 1 2 3 4 4 5 5 7 7 8 8 9
6 7 8 8 8 7 6 6 7 7 6 5 5 5 5 4 4 4 4 5 6 6 6 5 5 4 4 4 3 2 2 3 3 3 3 4 4 5 5 6 7 7 8 8
7 8 7 8 8 8 7 8 7 7 6 6 5 4 4 4 4 4 5 5 5 5 5 5 5 4 4 4 4 2 2 2 4 4 3 4 4 5 5 6 7 7 8 10
9 9 7 7 7 7 8 7 7 6 6 6 4 4 5 6 7 6 5 4 4 4 4 5 5 5 4 4 3 2 2 2 2 3 3 4 5 5 5 6 7 8 8 9
6 7 7 7 7 7 7 7 7 6 6 5 5 6 6 6 6 5 5 6 6 6 5 6 8 6 5 5 4 2 2 3 3 3 3 6 6 5 5 6 7 7 8 8
6 6 6 6 6 7 7 7 6 5 5 6 6 5 5 6 6 6 6 6 6 5 6 7 6 5 5 5 5 3 3 3 3 3 4 4 5 5 5 6 7 7 8 8
6 6 6 6 6 6 6 6 5 6 5 6 7 7 7 6 5 6 6 6 5 6 7 9 6 5 5 5 5 3 3 3 3 3 4 4 5 5 6 6 7 7 8 8
6 6 7 6 6 6 5 5 5 6 5 5 6 6 6 6 6 6 6 6 5 8 6 5 5 7 7 6 4 4 3 3 3 3 4 4 4 5 5 6 7 7 8 8
6 6 6 6 6 5 5 5 5 6 7 7 7 8 8 7 6 6 6 5 5 9 7 5 7 10 9 5 3 4 4 4 4 4 4 4 4 5 5 6 7 7 7 8
7 7 7 5 4 5 6 6 5 5 6 6 6 7 7 5 4 5 4 7 10 10 6 8 11 11 9 4 4 4 4 4 4 4 4 4 4 4 5 6 7 7 7 9
7 7 6 6 6 7 7 5 4 4 5 4 5 6 5 5 5 5 5 6 9 9 5 8 11 10 6 4 4 4 4 4 4 4 4 4 4 4 5 6 6 7 7 8
7 7 7 8 7 6 5 5 5 5 5 5 4 4 4 4 5 5 4 6 7 8 6 5 6 7 5 5 5 4 4 4 5 4 4 4 5 5 5 6 7 7 7 8
7 7 6 6 6 6 6 6 7 7 6 7 6 5 5 5 5 5 6 5 6 6 5 5 5 5 5 5 4 4 4 4 4 4 4 4 4 5 5 6 6 7 7 7
Wind_Direction
276 280 275 262 254 232 221 223 236 254 266 270 259 228 207 195 199 202 198 184 181 178 166 136 120 100 77 53 43 35 25 21 18 12 11 11 10 9 8 9 8 5 5 2
280 257 253 259 250 239 237 233 239 257 271 262 239 204 198 204 203 206 206 191 178 171 167 160 152 136 112 79 53 37 24 12 9 8 7 5 1 2 3 3 2 2 360 356
285 301 298 269 245 223 218 216 221 241 243 226 247 228 214 216 217 214 206 190 180 175 174 169 157 143 139 125 76 36 6 359 4 1 0 358 357 359 357 355 354 353 350 350
287 308 262 242 74 187 223 233 224 234 237 236 244 246 232 221 212 214 201 182 174 166 160 154 147 145 146 141 142 151 345 351 355 352 349 349 352 351 348 346 343 339 336 335
276 285 276 253 180 171 225 264 229 225 230 227 168 346 271 222 197 199 186 163 157 155 149 148 151 150 144 152 162 163 314 332 340 341 338 340 340 333 330 330 325 321 319 322
267 270 263 254 131 98 58 269 232 166 191 180 136 233 252 194 162 160 143 137 140 138 138 147 152 139 144 171 178 230 267 299 320 327 326 323 320 316 315 312 309 312 312 311
241 257 267 223 140 132 191 248 107 116 178 192 206 225 224 144 149 158 154 149 143 145 153 160 149 142 164 187 215 232 245 282 299 306 305 306 310 309 309 310 312 313 312 311
206 227 251 177 154 195 222 149 166 234 241 235 242 260 241 192 185 174 168 163 158 159 166 160 153 156 182 211 224 218 250 280 291 299 305 314 311 310 311 315 317 316 316 317
217 227 232 179 208 221 194 241 249 250 263 247 244 244 243 222 203 195 186 180 171 167 170 169 165 165 192 217 201 213 258 278 289 300 302 305 308 313 317 318 316 316 317 316
270 266 266 245 241 241 238 245 259 257 257 250 250 244 240 230 212 198 191 184 175 170 179 188 178 174 189 190 180 202 249 272 287 301 307 309 308 306 307 309 311 314 315 314
260 273 282 264 250 238 227 233 267 268 250 241 245 246 237 233 218 201 191 181 174 182 191 194 179 179 181 174 168 218 252 274 294 300 301 302 302 294 296 282 292 304 300 302
245 243 250 276 311 303 258 252 256 262 266 254 240 240 237 233 216 193 184 179 181 188 191 190 179 181 178 168 168 203 248 273 288 296 298 299 303 306 301 300 304 305 304 303
251 266 272 282 280 264 257 256 257 255 254 259 251 239 231 227 205 185 183 186 191 191 189 185 178 181 176 166 173 200 228 257 284 297 301 304 306 307 310 312 309 308 308 310
268 274 272 261 257 253 258 261 261 263 256 246 243 238 224 215 197 191 196 195 185 178 181 180 179 186 173 163 177 206 224 253 272 280 291 294 295 297 300 307 313 311 312 313
259 249 255 269 271 265 261 258 258 257 253 248 233 223 214 209 207 205 190 169 164 175 183 180 183 187 162 161 182 206 221 231 256 279 287 287 290 294 296 299 302 306 310 315
268 267 263 261 260 259 254 249 247 247 244 241 231 221 215 206 200 189 175 168 176 193 193 186 190 180 158 165 184 205 221 248 269 281 285 287 292 296 298 301 303 305 308 312
257 259 253 254 254 254 248 245 241 240 238 237 229 214 195 182 185 192 191 185 187 193 189 186 184 165 162 172 183 201 214 244 270 283 279 285 291 292 295 299 301 303 303 308
240 242 244 249 254 258 257 252 244 237 232 229 216 197 195 197 204 206 195 176 175 192 197 184 170 166 175 179 182 195 211 232 250 265 278 284 290 290 293 296 299 301 305 309
255 255 254 252 249 249 250 249 243 233 222 207 200 205 210 210 205 197 180 178 192 212 209 182 180 180 183 188 188 193 208 234 258 271 279 289 295 293 293 295 298 301 304 308
263 260 258 259 254 247 247 245 238 228 216 199 196 202 212 213 197 188 185 203 215 208 179 173 177 183 184 192 195 198 211 227 248 267 275 278 285 291 294 298 300 302 304 306
260 259 258 258 260 256 248 239 225 225 219 198 198 208 215 215 197 188 193 221 220 182 176 183 182 184 186 196 204 204 212 224 241 254 266 274 281 288 291 295 299 302 303 305
256 255 257 255 254 260 255 236 222 220 219 212 207 204 205 211 206 205 213 217 199 179 178 186 185 192 197 203 199 204 214 226 238 248 257 265 273 281 287 292 296 299 300 301
253 251 251 248 244 248 254 244 227 218 219 218 212 208 211 213 202 205 229 210 184 187 184 189 194 200 205 202 199 206 216 226 234 243 253 259 265 273 281 288 291 294 296 299
251 249 247 244 237 241 253 255 238 226 223 225 221 214 208 209 221 218 209 186 188 192 194 198 200 204 205 195 199 210 220 228 234 241 249 257 263 269 276 282 287 291 293 295
246 245 241 236 239 244 244 240 232 225 222 229 225 219 212 208 213 207 186 186 192 192 195 202 204 205 198 194 203 213 220 228 234 238 239 250 259 267 273 277 282 288 291 293
242 243 242 237 239 240 229 223 231 229 220 228 233 222 210 201 192 187 183 186 192 197 194 192 196 203 198 200 206 214 221 239 254 251 245 251 258 265 272 277 281 284 287 289
237 239 242 246 242 229 224 223 228 229 220 218 229 220 202 193 188 187 187 188 191 195 194 192 191 193 196 200 206 214 221 226 233 239 243 248 256 263 270 275 280 283 286 288
Height
1495 1490 1488 1488 1487 1486 1488 1488 1488 1479 1475 1471 1471 1471 1472 1473 1473 1474 1475 1475 1475 1475 1475 1474 1473 1473 1472 1471 1470 1469 1467 1465 1464 1462 1460 1458 1456 1454 1452 1450 1449 1447 1445 1443
1495 1486 1484 1483 1480 1480 1480 1479 1478 1476 1473 1467 1468 1468 1469 1470 1471 1472 1472 1472 1473 1473 1473 1472 1472 1471 1471 1470 1469 1468 1467 1465 1463 1462 1460 1458 1456 1454 1451 1449 1447 1445 1443 1442
1496 1484 1483 1482 1470 1471 1472 1470 1471 1472 1468 1466 1467 1466 1467 1468 1468 1469 1469 1470 1470 1470 1470 1470 1470 1469 1469 1469 1468 1467 1465 1464 1462 1460 1458 1456 1454 1452 1450 1448 1446 1444 1442 1439
1497 1491 1490 1470 1462 1461 1463 1463 1463 1463 1462 1463 1464 1464 1464 1465 1465 1466 1466 1467 1467 1467 1467 1467 1467 1467 1467 1467 1466 1465 1463 1462 1460 1458 1456 1454 1452 1450 1448 1446 1443 1441 1439 1436
1497 1492 1479 1465 1462 1462 1464 1462 1458 1459 1460 1461 1462 1462 1462 1462 1462 1463 1463 1464 1464 1465 1465 1465 1465 1465 1465 1464 1463 1462 1461 1459 1458 1456 1454 1452 1450 1447 1445 1443 1441 1438 1436 1433
1496 1491 1481 1464 1462 1461 1464 1464 1456 1456 1458 1459 1460 1464 1461 1459 1459 1460 1460 1461 1461 1462 1462 1462 1462 1462 1462 1461 1460 1459 1458 1457 1455 1453 1451 1449 1447 1445 1442 1440 1438 1435 1433 1430
1497 1491 1474 1462 1461 1463 1469 1462 1457 1456 1457 1457 1458 1459 1457 1456 1456 1457 1457 1457 1458 1458 1459 1459 1459 1459 1459 1458 1457 1456 1455 1453 1452 1450 1448 1446 1444 1442 1439 1437 1434 1432 1429 1427
1488 1487 1476 1460 1461 1462 1460 1456 1455 1455 1455 1455 1455 1455 1454 1453 1453 1453 1453 1454 1454 1455 1455 1455 1456 1456 1455 1455 1454 1453 1452 1450 1449 1447 1445 1443 1441 1438 1436 1433 1431 1428 1425 1423
1473 1469 1458 1456 1455 1454 1454 1454 1453 1453 1453 1453 1452 1451 1451 1450 1450 1450 1450 1450 1451 1451 1452 1452 1452 1452 1451 1451 1450 1449 1448 1447 1445 1443 1441 1439 1437 1435 1432 1430 1427 1424 1421 1419
1466 1456 1453 1452 1451 1451 1451 1451 1450 1450 1450 1449 1448 1447 1447 1446 1446 1446 1446 1447 1447 1448 1448 1448 1448 1448 1448 1447 1446 1445 1444 1443 1441 1439 1438 1436 1434 1431 1429 1426 1424 1421 1418 1415
1462 1454 1451 1448 1448 1448 1447 1447 1447 1446 1446 1445 1444 1443 1443 1442 1442 1442 1443 1443 1444 1444 1444 1444 1444 1444 1444 1443 1442 1441 1440 1439 1437 1436 1434 1432 1430 1428 1425 1423 1421 1418 1415 1412
1454 1449 1448 1446 1445 1445 1444 1443 1443 1442 1441 1441 1440 1439 1439 1438 1438 1438 1438 1439 1439 1440 1440 1440 1440 1440 1440 1439 1438 1437 1436 1435 1433 1432 1430 1428 1426 1424 1422 1420 1417 1414 1411 1409
1445 1444 1443 1442 1441 1441 1440 1439 1438 1438 1437 1436 1435 1435 1435 1434 1434 1434 1434 1434 1435 1435 1435 1436 1436 1435 1435 1435 1434 1433 1432 1431 1430 1428 1426 1424 1422 1420 1417 1415 1413 1410 1407 1404
1441 1440 1438 1437 1436 1436 1435 1434 1433 1432 1432 1431 1431 1430 1430 1430 1430 1430 1430 1430 1430 1430 1431 1431 1431 1431 1431 1431 1430 1429 1428 1427 1426 1424 1423 1421 1419 1416 1413 1410 1407 1404 1403 1400
1435 1435 1433 1432 1431 1430 1429 1429 1428 1427 1426 1426 1426 1426 1426 1425 1425 1425 1426 1426 1426 1426 1426 1426 1426 1427 1427 1426 1426 1425 1424 1423 1422 1420 1419 1417 1415 1412 1410 1407 1404 1400 1397 1394
1429 1428 1427 1426 1425 1425 1424 1423 1422 1421 1421 1421 1421 1421 1421 1421 1421 1421 1422 1422 1422 1421 1422 1422 1422 1422 1422 1422 1421 1421 1420 1419 1418 1416 1415 1413 1411 1408 1406 1403 1400 1397 1393 1390
1424 1422 1421 1420 1419 1419 1419 1418 1417 1416 1416 1416 1416 1417 1417 1417 1417 1417 1417 1417 1417 1417 1417 1418 1418 1418 1418 1417 1417 1416 1416 1415 1413 1412 1410 1409 1406 1404 1402 1399 1396 1393 1390 1387
1417 1417 1416 1416 1415 1414 1413 1413 1412 1412 1412 1412 1412 1412 1412 1412 1412 1412 1412 1413 1412 1412 1413 1413 1413 1413 1413 1413 1413 1412 1411 1410 1409 1408 1406 1404 1402 1400 1398 1395 1392 1389 1386 1383
1412 1411 1411 1410 1410 1409 1408 1407 1407 1407 1407 1407 1407 1407 1407 1407 1408 1408 1408 1408 1408 1407 1408 1409 1409 1409 1409 1408 1408 1407 1407 1406 1405 1403 1402 1400 1398 1396 1394 1391 1389 1385 1382 1379
1408 1408 1407 1406 1405 1404 1403 1402 1402 1402 1402 1402 1402 1402 1402 1402 1403 1403 1403 1403 1403 1403 1404 1404 1404 1404 1404 1404 1403 1403 1402 1401 1400 1399 1398 1396 1394 1392 1390 1387 1385 1382 1379 1375
1405 1404 1403 1402 1401 1400 1399 1398 1397 1397 1397 1397 1397 1397 1397 1398 1398 1398 1398 1397 1398 1399 1399 1399 1399 1399 1399 1399 1399 1398 1397 1397 1396 1395 1394 1392 1390 1388 1386 1384 1381 1378 1375 1372
1402 1401 1399 1398 1397 1395 1395 1394 1393 1392 1392 1392 1392 1392 1392 1392 1393 1393 1393 1393 1394 1394 1394 1394 1395 1395 1395 1395 1394 1394 1393 1392 1391 1390 1389 1388 1386 1384 1382 1380 1377 1374 1371 1368
1399 1397 1395 1394 1393 1391 1390 1389 1388 1388 1387 1387 1387 1387 1387 1387 1387 1388 1387 1388 1389 1389 1389 1389 1390 1390 1390 1390 1390 1389 1389 1388 1387 1386 1385 1384 1382 1380 1378 1376 1373 1371 1368 1365
1394 1393 1391 1390 1388 1386 1384 1384 1383 1383 1382 1382 1382 1382 1382 1382 1382 1382 1383 1383 1384 1384 1384 1384 1385 1385 1385 1385 1385 1385 1384 1384 1383 1382 1381 1379 1378 1376 1374 1372 1369 1367 1364 1361
1389 1387 1386 1384 1383 1381 1379 1378 1377 1377 1377 1376 1376 1376 1376 1376 1377 1377 1377 1378 1378 1379 1379 1380 1380 1380 1381 1381 1381 1380 1380 1379 1378 1377 1376 1375 1374 1372 1370 1368 1366 1363 1361 1358
1382 1381 1379 1378 1377 1375 1374 1373 1372 1371 1371 1370 1370 1370 1370 1371 1371 1371 1372 1372 1373 1373 1374 1375 1375 1376 1376 1376 1376 1376 1375 1375 1374 1373 1372 1371 1370 1368 1366 1364 1362 1360 1357 1354
1375 1373 1372 1370 1369 1369 1368 1367 1366 1365 1365 1365 1364 1365 1365 1365 1365 1366 1366 1366 1367 1368 1369 1370 1370 1371 1371 1371 1371 1371 1371 1370 1370 1369 1368 1367 1366 1364 1363 1361 1358 1356 1354 1351